Temp
9 9 9 9 9 10 10 10 11 11 13 15 16 17 17 17 19 19 18 23 26 27 26 25 23 25 25 23 25 25 22 22 23 26 27 29 29 30 32 32 32 31 27 28 29
9 9 9 9 9 9 9 10 10 10 11 12 14 17 17 17 17 16 25 26 28 26 24 24 23 24 22 24 24 23 21 24 26 26 26 28 28 29 30 29 30 30 27 27 28
9 9 9 9 9 9 9 9 10 9 10 10 11 13 16 17 15 20 27 27 27 25 25 25 26 24 23 24 24 24 25 26 27 28 28 28 29 30 30 29 29 29 27 25 24
7 7 8 8 8 9 9 9 9 9 9 10 10 12 15 15 19 26 25 26 27 25 24 25 24 23 23 23 26 24 26 27 27 29 29 28 30 30 30 29 30 29 27 25 24
7 7 7 7 7 8 9 9 9 10 10 10 10 10 13 13 18 27 26 25 27 23 23 23 23 24 23 25 25 24 26 28 28 28 29 29 29 30 29 30 29 29 26 25 24
7 7 7 7 7 7 8 9 9 9 10 10 10 9 10 12 21 22 24 24 25 24 23 24 24 25 23 25 24 26 27 27 28 28 29 29 29 28 30 30 29 27 25 25 23
7 7 7 8 7 7 7 8 9 9 10 10 9 9 9 13 20 22 22 23 25 25 24 24 26 25 24 24 25 26 26 27 28 28 28 29 28 29 29 29 28 27 26 25 24
8 7 7 7 7 7 7 8 8 8 10 10 9 9 10 16 19 20 23 22 23 24 25 27 26 24 23 24 25 25 25 24 27 28 29 27 27 29 28 28 27 27 27 26 23
7 8 8 7 7 6 7 8 8 9 9 8 9 9 10 18 16 21 22 22 24 25 25 26 25 23 24 23 22 23 23 24 25 26 28 27 28 29 29 28 27 26 25 26 25
7 7 7 7 7 7 7 8 10 8 9 9 10 10 13 18 21 22 22 22 23 24 24 24 23 22 21 21 22 24 23 25 26 28 27 27 27 29 29 28 28 26 25 24 24
6 7 7 7 7 7 7 7 10 10 8 11 12 14 21 20 22 23 22 21 22 23 22 23 22 22 23 24 25 24 24 24 27 28 28 27 27 29 28 26 27 26 25 24 22
7 7 6 7 8 8 6 6 10 11 9 12 13 14 17 19 19 22 23 21 20 20 23 22 22 24 26 25 24 24 24 24 26 28 27 27 27 29 28 26 26 26 25 23 20
7 7 7 7 7 8 8 8 11 10 9 13 14 15 16 18 18 20 24 22 22 21 23 22 24 26 25 24 24 24 24 25 25 27 27 26 26 26 29 28 28 26 25 21 20
7 7 7 7 7 7 8 11 11 11 8 13 15 17 18 18 18 21 24 24 23 22 23 23 25 25 24 24 25 24 26 27 26 25 23 26 23 24 28 28 28 26 24 21 21
7 7 7 7 7 6 11 10 11 11 9 18 19 20 19 18 22 22 23 23 23 23 23 23 24 24 24 24 26 25 26 26 26 25 24 26 23 24 25 28 28 26 23 20 21
7 7 7 7 6 8 9 10 10 10 9 16 21 20 19 19 22 24 23 24 25 24 23 23 26 25 25 26 26 27 26 25 25 24 23 25 24 26 25 27 28 27 23 21 19
7 7 7 6 7 9 9 9 10 10 15 17 17 18 18 19 20 23 22 22 21 22 22 24 23 25 26 25 26 25 23 22 19 21 22 24 23 24 25 25 27 26 23 20 19
7 7 7 7 8 8 8 9 10 13 14 16 16 18 18 21 20 21 22 22 22 23 22 22 22 24 26 25 25 25 24 23 22 21 23 25 25 26 27 28 27 25 22 19 18
6 7 7 8 8 7 8 8 9 13 15 14 15 16 17 17 17 20 21 22 23 23 22 22 22 26 27 27 26 25 25 26 24 23 23 23 25 26 26 25 24 22 21 19 18
6 6 7 9 8 8 7 8 10 13 13 13 13 14 13 14 14 15 20 23 23 24 23 23 21 25 26 27 26 26 26 25 21 22 23 23 25 24 27 24 23 22 20 18 18
6 5 9 9 8 7 6 8 10 13 13 12 12 13 13 12 13 14 18 20 22 24 24 23 22 23 26 25 25 25 25 24 23 21 21 20 23 22 26 24 23 22 21 19 19
5 5 9 9 7 6 7 9 10 11 12 12 13 13 13 10 12 13 16 18 17 17 21 24 20 22 23 26 27 26 26 24 25 23 22 21 23 25 24 23 24 23 22 20 20
4 4 8 9 5 7 7 9 10 10 11 12 12 13 14 13 12 13 15 17 17 17 17 22 22 20 21 24 25 26 26 24 22 20 22 24 23 26 24 24 24 23 21 20 19
4 5 5 5 7 7 7 8 9 12 11 13 12 13 13 13 14 13 13 16 15 16 17 16 21 23 23 25 25 25 27 26 23 21 21 24 25 28 25 24 23 22 21 21 20
4 5 7 5 5 7 7 9 9 9 11 11 11 12 12 11 13 13 14 13 14 16 15 14 21 24 25 25 26 27 28 27 27 25 26 24 24 25 24 25 24 23 21 22 21
5 5 6 6 5 7 8 8 9 10 10 11 11 12 13 11 12 12 12 12 12 14 13 13 14 23 23 26 26 26 27 28 28 25 25 26 25 25 26 25 23 23 23 22 22
6 6 5 7 5 6 6 9 8 9 10 11 12 11 10 13 13 13 12 12 13 12 12 12 14 16 23 25 26 24 26 27 27 26 25 26 26 24 24 25 24 23 24 24 23
Height
821 820 816 814 813 813 811 810 807 803 801 799 799 798 798 793 792 787 781 772 773 774 777 775 783 782 787 787 786 788 817 818 805 795 781 754 762 749 742 744 740 736 739 730 734
821 818 817 814 812 811 809 806 804 801 799 798 797 795 796 788 783 778 762 764 766 771 773 775 777 782 789 785 786 795 813 795 769 774 775 762 760 754 752 748 744 738 732 730 735
820 819 817 815 813 810 807 803 801 800 799 796 795 793 791 787 784 763 759 757 757 764 768 773 774 778 789 783 780 781 787 770 768 763 760 760 755 747 750 752 740 741 737 733 736
819 816 814 811 808 805 803 802 800 798 797 794 792 790 787 786 790 755 758 755 755 759 768 770 773 781 785 786 762 785 767 764 757 754 756 757 746 747 742 739 725 725 727 732 735
816 814 811 808 804 801 799 798 798 794 791 789 788 786 783 781 763 753 755 756 755 755 761 765 772 774 781 770 772 774 759 753 750 750 748 744 748 743 736 722 718 722 728 729 730
814 811 808 805 802 799 796 794 792 790 790 789 786 784 783 776 753 751 754 755 755 757 757 762 759 759 771 767 773 751 754 752 747 747 744 746 738 738 726 717 719 722 726 724 726
812 808 804 801 797 795 792 790 787 785 784 783 783 782 777 748 745 747 748 747 748 751 751 753 755 760 760 770 755 753 761 751 747 744 742 737 743 735 719 715 719 721 718 719 718
808 804 800 796 792 788 784 780 777 776 776 776 776 775 757 740 740 738 742 740 743 746 747 747 749 753 761 756 756 761 759 769 745 740 731 743 749 723 711 716 719 717 714 715 716
805 801 796 792 789 784 779 772 768 767 770 773 776 775 757 734 728 719 727 732 735 740 744 743 745 754 757 769 778 767 775 766 753 737 734 740 739 714 705 711 713 710 711 710 709
803 799 794 790 786 782 776 769 757 761 764 769 770 772 741 719 712 711 715 726 732 733 740 741 746 759 765 771 777 766 770 756 751 728 733 735 734 713 702 705 704 704 705 705 705
801 796 792 788 784 780 775 768 762 763 763 748 740 726 709 706 710 709 712 722 731 734 745 738 752 754 746 741 741 750 756 756 734 717 735 735 728 710 701 701 699 701 701 700 701
797 792 789 786 782 777 775 774 768 770 758 740 732 731 715 716 722 706 708 721 729 735 732 741 734 726 730 733 741 747 752 751 733 719 734 729 727 705 697 698 695 695 696 697 704
795 790 785 782 779 775 773 769 765 766 760 726 718 710 718 717 718 702 703 708 715 729 725 727 716 719 728 734 740 739 746 743 743 723 722 732 731 718 691 688 688 689 689 695 698
791 788 784 780 778 774 769 765 763 760 764 719 703 687 700 713 703 693 692 697 707 716 720 720 712 717 724 728 729 742 723 726 732 741 759 722 759 727 698 694 689 687 688 691 692
788 784 781 780 776 773 766 761 758 759 769 690 684 675 675 683 671 675 681 690 698 702 713 703 707 716 722 717 715 722 716 724 724 735 744 728 750 725 705 700 691 685 686 689 687
785 781 778 776 774 767 765 760 757 765 756 696 673 682 681 677 665 659 667 677 680 694 694 698 688 699 703 703 706 703 720 723 725 736 756 731 743 715 714 697 685 678 685 687 691
780 777 774 774 768 766 765 761 764 758 713 695 693 688 681 679 676 663 673 683 689 706 706 700 700 692 689 706 700 709 731 759 776 765 750 726 739 718 692 685 680 680 686 690 693
775 771 767 765 764 766 767 766 755 730 722 703 700 685 678 669 675 671 673 676 676 676 693 706 712 689 677 689 702 706 719 740 762 764 743 717 728 703 673 664 666 670 680 689 696
770 765 761 757 760 765 769 764 752 731 723 721 709 697 691 688 690 669 668 664 660 664 684 694 695 665 666 675 685 696 709 699 727 727 734 725 703 683 669 674 678 682 685 691 694
768 764 758 754 758 764 768 760 750 736 732 728 727 717 720 709 703 696 669 651 659 656 662 675 696 665 662 668 670 679 684 715 731 746 745 730 713 715 685 686 686 689 688 693 697
768 766 755 754 759 764 767 762 748 739 737 734 731 727 728 723 715 705 681 668 658 657 656 665 679 675 661 665 667 683 692 695 700 716 736 749 722 685 679 680 683 682 682 688 693
770 772 757 756 763 767 764 756 750 740 737 734 728 724 726 735 717 711 692 675 680 683 665 650 678 688 663 646 645 662 672 683 694 711 707 718 708 664 666 670 669 676 679 685 689
774 769 757 759 771 763 759 751 746 740 737 729 726 724 718 720 722 708 693 676 680 683 679 655 664 692 676 660 650 655 654 665 680 693 704 712 709 658 663 666 666 673 681 685 691
776 773 764 762 761 762 759 752 746 734 733 722 723 721 719 712 711 708 706 687 688 685 677 674 653 655 664 649 644 654 648 651 667 697 700 688 684 665 671 668 672 673 676 681 685
777 775 766 771 766 761 759 748 745 741 730 725 724 719 718 719 710 708 702 704 692 679 679 681 651 640 633 636 634 636 634 642 646 657 672 678 682 669 669 663 663 666 675 681 686
778 776 770 764 762 758 752 749 743 734 732 722 721 713 711 717 713 711 708 714 705 683 687 683 672 636 641 628 630 641 630 630 635 649 656 658 669 649 647 653 666 667 672 677 681
776 773 773 761 762 761 756 745 744 736 727 719 719 718 717 706 703 704 707 707 704 701 698 698 682 665 642 627 631 650 628 626 627 631 643 663 649 646 655 655 657 664 663 667 672
Wind_Speed
19 18 19 19 19 19 19 20 20 19 18 17 17 16 16 18 21 20 15 22 17 24 9 11 16 15 9 5 6 5 2 8 7 7 10 17 2 6 5 3 3 5 7 10 29
18 19 20 20 21 21 21 20 20 20 19 18 19 17 17 18 20 18 33 35 30 25 24 15 9 10 4 5 5 6 6 12 15 9 10 15 6 8 5 7 5 4 4 15 31
18 18 18 20 20 21 22 22 21 20 19 18 18 17 14 13 6 11 10 6 18 28 23 22 10 8 7 5 7 8 16 19 18 16 16 18 17 7 6 6 8 6 6 11 10
17 18 19 19 21 22 22 22 22 21 18 18 17 17 13 1 7 2 4 16 8 25 25 19 6 7 6 14 22 6 14 21 23 21 18 19 18 17 8 9 9 7 16 10 10
18 18 19 20 21 22 22 22 24 23 21 20 17 16 5 4 10 16 15 14 4 22 22 12 11 12 15 10 8 13 24 20 19 17 20 20 17 17 9 10 9 3 14 17 15
19 19 20 20 21 21 22 21 24 22 20 18 16 13 4 15 18 33 37 24 20 15 20 16 10 10 5 18 14 10 16 20 18 20 22 22 22 7 10 9 10 10 16 14 14
21 21 21 21 21 23 23 23 24 24 22 18 14 10 8 19 12 10 20 20 28 26 8 28 27 4 7 9 13 14 21 20 19 13 17 16 18 13 11 9 10 12 12 15 18
23 23 24 23 22 23 24 26 26 25 22 19 13 8 10 15 17 29 39 38 20 18 26 26 28 11 6 5 8 7 5 9 11 14 21 7 24 16 13 10 12 11 10 11 11
22 23 24 24 23 23 25 29 30 28 24 17 11 6 10 10 15 43 37 20 28 24 25 27 10 9 3 16 11 5 13 17 13 11 12 9 22 19 13 13 15 11 10 11 13
24 24 24 24 23 24 25 31 34 19 12 9 12 2 9 8 11 13 31 29 12 6 6 12 6 8 5 5 13 12 11 5 17 21 8 14 16 20 20 15 18 11 10 10 8
24 24 23 24 23 23 24 14 4 2 7 10 11 8 5 26 8 10 13 22 10 6 10 14 11 16 26 23 14 8 6 9 20 24 5 12 15 23 13 10 13 10 10 10 9
28 26 24 21 22 23 22 2 5 2 10 17 26 25 37 18 7 9 20 10 14 17 14 8 24 23 16 15 12 12 14 18 21 23 7 17 18 21 9 7 10 12 11 7 7
25 25 26 22 19 19 8 12 18 15 6 11 20 19 20 11 11 16 17 9 11 17 21 22 8 18 16 14 13 16 17 17 18 20 16 10 15 9 5 3 3 7 4 7 16
26 24 23 22 13 11 10 11 22 10 4 7 9 10 16 10 12 26 9 11 8 25 22 18 22 16 22 18 17 19 16 19 15 12 8 6 7 5 6 6 5 8 7 10 14
24 24 21 14 15 7 12 27 26 3 4 5 5 5 10 22 12 17 32 15 21 17 19 16 20 25 21 24 21 18 18 18 20 14 9 22 4 8 6 6 9 9 5 10 17
23 22 19 13 10 20 19 27 9 2 8 7 6 5 5 23 14 6 23 9 15 17 18 26 6 20 23 18 22 23 10 12 12 8 11 15 7 15 5 8 5 2 6 10 9
22 20 16 10 6 9 17 9 1 6 8 1 11 20 18 14 20 8 22 26 13 18 23 14 24 17 15 21 19 13 10 4 3 3 11 9 6 10 6 8 8 9 8 8 9
22 21 19 21 19 15 10 0 8 7 15 19 20 22 8 6 6 23 13 25 24 16 11 17 12 26 20 20 18 19 14 8 7 6 4 6 5 10 9 5 7 7 10 10 9
23 16 11 17 10 9 0 6 4 3 9 17 20 10 11 20 13 10 22 26 24 22 12 16 15 9 21 18 19 14 15 21 4 3 2 4 7 9 7 6 6 10 12 11 11
10 6 8 9 6 5 1 6 4 11 17 15 10 11 19 19 13 16 5 17 20 25 10 5 4 15 16 14 24 25 6 7 2 10 6 4 4 5 1 7 6 8 10 8 8
6 4 5 3 11 2 2 5 7 11 13 8 13 15 14 16 12 7 7 11 2 15 22 9 3 5 15 21 27 10 10 6 5 6 8 3 7 8 13 11 16 13 13 14 14
4 3 6 15 2 1 2 3 8 15 15 15 10 12 9 6 11 8 8 10 21 20 12 24 5 11 21 4 16 15 15 10 9 5 2 6 9 4 11 15 17 12 12 12 12
3 3 7 4 1 2 4 7 8 17 15 5 7 7 8 7 5 8 12 16 15 18 8 10 15 6 7 2 7 15 14 8 5 5 8 7 7 3 5 12 13 14 10 11 12
2 3 3 4 1 3 3 7 4 6 11 10 3 4 7 10 9 10 15 12 27 22 16 10 6 26 14 12 5 6 18 13 8 5 6 8 5 4 2 14 9 11 14 16 16
1 3 2 3 3 5 4 5 11 7 6 9 2 4 7 4 10 16 15 20 19 10 17 10 12 20 29 16 3 6 17 17 16 12 11 7 10 8 10 16 17 14 13 15 15
2 2 3 6 6 4 4 4 14 11 7 9 5 9 13 7 12 15 11 14 11 10 16 9 6 11 22 28 26 16 13 22 15 8 8 12 8 8 16 8 9 15 17 17 18
4 2 2 5 4 2 2 7 11 12 10 8 13 4 10 11 8 10 8 10 20 17 17 5 5 6 20 16 18 17 19 17 17 14 12 10 7 8 7 15 17 15 19 20 19
Wind_Direction
333 332 334 335 338 336 333 332 331 331 323 315 306 304 307 305 302 299 248 246 257 254 253 188 200 196 180 212 188 142 160 254 239 229 253 284 1 293 270 281 267 223 155 215 180
323 322 321 322 323 324 327 330 328 326 325 319 311 303 304 314 321 282 267 270 259 244 210 186 188 181 216 210 209 165 189 236 237 255 274 284 268 282 302 318 281 296 355 139 157
312 312 311 308 307 310 314 319 321 322 319 319 316 307 304 322 332 255 289 288 253 232 220 218 197 162 215 179 216 203 226 242 266 260 263 269 283 271 276 293 267 252 193 158 156
321 316 311 307 304 304 307 309 310 310 311 317 319 315 307 210 233 238 162 6 302 214 214 217 213 196 204 221 235 267 243 243 253 262 267 267 275 268 228 243 251 277 186 165 163
321 321 318 314 311 306 301 303 301 304 308 312 317 322 322 214 227 220 257 324 352 188 205 203 192 218 221 240 242 236 242 247 255 263 265 268 259 254 239 259 270 151 169 183 185
333 319 314 316 315 308 299 293 296 298 298 303 308 320 220 244 248 250 256 258 269 198 210 201 217 208 297 235 235 241 248 254 259 262 266 265 269 231 248 247 269 169 199 192 185
329 329 328 314 312 313 309 297 292 291 293 299 297 289 242 243 243 250 232 248 253 232 211 216 223 199 202 269 271 250 258 264 261 250 259 269 269 248 250 251 247 204 190 197 201
329 326 324 324 316 311 310 307 298 292 290 292 295 281 256 267 265 257 248 263 258 247 239 235 218 220 224 302 307 297 272 258 247 260 261 194 269 273 254 229 230 220 218 199 202
324 324 320 319 320 314 308 305 297 293 284 280 276 211 266 270 225 237 231 224 236 237 234 233 164 199 184 228 266 229 257 260 279 244 260 208 266 268 271 224 229 225 219 222 217
323 319 318 316 317 320 313 307 303 287 284 242 233 285 259 233 232 238 235 224 224 195 212 211 194 183 229 157 219 220 237 223 255 259 254 268 264 270 262 232 223 214 226 228 208
324 321 316 317 315 319 322 338 8 83 235 212 197 218 318 227 299 238 185 191 223 222 204 200 209 213 217 217 228 242 236 246 262 268 278 267 270 271 256 238 218 218 233 232 201
325 323 323 314 314 315 310 241 230 349 287 254 259 238 263 294 312 270 165 163 182 213 202 207 221 218 223 224 217 229 241 249 272 270 261 274 281 287 252 224 213 213 234 219 138
325 322 322 319 316 306 285 257 305 308 264 265 229 233 227 244 234 264 183 182 189 199 208 211 227 204 210 222 226 227 229 243 243 276 279 276 279 265 292 227 239 274 262 147 166
324 322 318 321 306 310 278 322 327 334 278 268 209 238 193 216 254 219 215 183 202 206 209 233 221 202 211 221 214 234 226 241 251 255 257 140 281 277 237 259 246 261 214 183 173
322 320 316 310 293 299 295 331 330 209 300 229 212 172 184 184 131 204 203 209 201 183 189 211 196 217 224 215 216 228 223 233 244 247 259 280 295 267 271 268 266 287 221 172 177
323 319 316 305 259 273 318 327 327 83 250 300 96 338 178 209 217 147 184 193 201 202 212 218 198 209 219 221 220 231 238 238 255 242 253 243 216 268 221 226 252 228 194 179 155
321 316 303 264 247 282 322 322 228 218 310 184 339 341 307 204 217 219 185 191 190 192 217 214 223 237 203 216 229 212 202 248 284 198 241 210 184 239 228 231 223 193 198 159 147
319 311 294 267 269 279 307 241 242 242 260 309 346 325 298 30 259 231 183 196 208 198 180 211 228 212 218 212 213 221 211 204 185 222 239 203 228 260 226 253 209 155 159 138 140
320 312 270 281 244 246 171 222 243 302 308 344 345 325 351 0 343 211 222 207 201 202 188 195 227 244 206 211 206 222 212 224 203 315 137 214 282 320 267 151 136 133 145 149 152
314 292 281 334 211 173 150 254 296 339 322 326 333 348 340 336 335 349 210 224 219 210 191 231 222 226 203 195 230 219 142 231 303 204 212 265 247 231 150 149 148 155 154 145 139
324 333 297 337 158 119 212 245 302 287 318 332 321 317 328 323 317 313 301 51 333 220 218 216 134 302 208 203 209 199 201 201 175 166 192 212 260 199 203 177 172 173 165 161 163
337 329 49 132 69 91 241 233 281 283 300 292 278 309 323 306 298 298 274 305 357 341 240 210 179 238 241 298 200 209 205 180 213 232 167 158 257 245 218 171 165 169 170 169 158
321 260 357 156 170 232 247 259 277 278 278 272 296 310 297 285 288 311 307 335 340 344 348 232 217 259 324 252 240 202 201 178 143 121 187 168 256 4 127 149 170 158 164 159 153
359 323 339 12 90 295 271 278 269 296 308 290 264 288 310 267 253 276 297 317 336 320 332 321 212 207 220 221 164 198 198 188 145 142 164 196 205 200 219 152 168 169 162 164 166
20 272 292 306 312 287 280 274 291 298 252 280 233 231 278 291 289 267 290 320 318 299 350 5 218 205 222 234 236 217 212 189 188 180 173 201 189 215 194 174 180 170 160 158 165
312 321 335 288 271 288 287 315 301 313 282 307 257 282 290 252 272 284 280 305 292 312 347 338 299 204 221 224 236 247 232 194 190 175 142 178 208 201 190 164 143 170 164 171 177
300 309 313 288 298 340 248 319 300 311 280 288 310 283 281 275 238 238 220 252 263 278 296 276 335 338 222 218 231 234 234 207 181 174 150 182 202 165 144 174 176 174 176 179 180